TimeEDT,TemperatureF,Dew PointF,Humidity,Sea Level PressureIn,VisibilityMPH,Wind Direction,Wind SpeedMPH,Gust SpeedMPH,PrecipitationIn,Events,Conditions,WindDirDegrees,DateUTC
12:15 AM,37.4,30.2,75,30.28,10.0,Calm,Calm,-,N/A,,Clear,0,2012-10-11 04:15:00
12:35 AM,37.4,32.0,81,30.28,10.0,Calm,Calm,-,N/A,,Clear,0,2012-10-11 04:35:00
12:55 AM,35.6,30.2,81,30.28,10.0,Calm,Calm,-,N/A,,Clear,0,2012-10-11 04:55:00
1:15 AM,37.4,32.0,81,30.28,10.0,Calm,Calm,-,N/A,,Clear,0,2012-10-11 05:15:00
1:35 AM,35.6,32.0,87,30.28,10.0,Calm,Calm,-,N/A,,Clear,0,2012-10-11 05:35:00
1:55 AM,35.6,30.2,81,30.27,10.0,Calm,Calm,-,N/A,,Clear,0,2012-10-11 05:55:00
2:15 AM,35.6,30.2,81,30.28,10.0,Calm,Calm,-,N/A,,Clear,0,2012-10-11 06:15:00
2:35 AM,35.6,32.0,87,30.28,10.0,Calm,Calm,-,N/A,,Clear,0,2012-10-11 06:35:00
2:55 AM,33.8,30.2,87,30.28,10.0,Calm,Calm,-,N/A,,Clear,0,2012-10-11 06:55:00
3:15 AM,33.8,30.2,87,30.28,10.0,Calm,Calm,-,N/A,,Clear,0,2012-10-11 07:15:00
3:55 AM,33.8,30.2,87,30.28,10.0,Calm,Calm,-,N/A,,Clear,0,2012-10-11 07:55:00
4:15 AM,33.8,30.2,87,30.28,10.0,Calm,Calm,-,N/A,,Clear,0,2012-10-11 08:15:00
4:35 AM,33.8,30.2,87,30.28,10.0,Calm,Calm,-,N/A,,Clear,0,2012-10-11 08:35:00
4:55 AM,33.8,30.2,87,30.27,10.0,Calm,Calm,-,N/A,,Clear,0,2012-10-11 08:55:00
5:15 AM,33.8,30.2,87,30.28,10.0,Calm,Calm,-,N/A,,Clear,0,2012-10-11 09:15:00
5:35 AM,33.8,30.2,87,30.28,10.0,Calm,Calm,-,N/A,,Clear,0,2012-10-11 09:35:00
5:55 AM,33.8,30.2,87,30.28,10.0,Calm,Calm,-,N/A,,Clear,0,2012-10-11 09:55:00
6:15 AM,33.8,30.2,87,30.29,10.0,Calm,Calm,-,N/A,,Clear,0,2012-10-11 10:15:00
6:35 AM,33.8,30.2,87,30.29,10.0,Calm,Calm,-,N/A,,Clear,0,2012-10-11 10:35:00
12:35 PM,55.4,33.8,44,30.29,10.0,South,9.2,-,N/A,,Clear,190,2012-10-11 16:35:00
12:55 PM,55.4,33.8,44,30.29,10.0,SSW,9.2,-,N/A,,Clear,200,2012-10-11 16:55:00
1:15 PM,57.2,33.8,41,30.28,10.0,SSW,8.1,-,N/A,,Clear,210,2012-10-11 17:15:00
1:55 PM,59.0,35.6,42,30.27,10.0,South,10.4,-,N/A,,Clear,190,2012-10-11 17:55:00
2:15 PM,57.2,35.6,44,30.27,10.0,WSW,6.9,-,N/A,,Clear,240,2012-10-11 18:15:00
2:35 PM,59.0,35.6,42,30.25,10.0,SW,9.2,-,N/A,,Clear,220,2012-10-11 18:35:00
2:55 PM,59.0,33.8,39,30.24,10.0,South,6.9,-,N/A,,Clear,190,2012-10-11 18:55:00
3:15 PM,60.8,37.4,42,30.24,10.0,SW,4.6,-,N/A,,Clear,230,2012-10-11 19:15:00
3:35 PM,60.8,35.6,39,30.22,10.0,SW,9.2,-,N/A,,Clear,220,2012-10-11 19:35:00
3:55 PM,60.8,35.6,39,30.22,10.0,West,8.1,-,N/A,,Clear,260,2012-10-11 19:55:00
4:15 PM,60.8,35.6,39,30.22,10.0,West,3.5,-,N/A,,Clear,280,2012-10-11 20:15:00
5:15 PM,60.8,35.6,39,30.20,10.0,SW,10.4,-,N/A,,Clear,230,2012-10-11 21:15:00
5:35 PM,60.8,35.6,39,30.20,10.0,WSW,10.4,-,N/A,,Clear,240,2012-10-11 21:35:00
5:55 PM,60.8,35.6,39,30.20,10.0,WSW,6.9,-,N/A,,Clear,250,2012-10-11 21:55:00
6:15 PM,60.8,35.6,39,30.20,10.0,West,6.9,-,N/A,,Clear,280,2012-10-11 22:15:00
9:35 PM,51.8,37.4,58,30.21,10.0,South,4.6,-,N/A,,Clear,190,2012-10-12 01:35:00
9:55 PM,51.8,37.4,58,30.22,10.0,SSW,4.6,-,N/A,,Clear,210,2012-10-12 01:55:00
10:15 PM,51.8,37.4,58,30.22,10.0,South,4.6,-,N/A,,Clear,180,2012-10-12 02:15:00
10:35 PM,51.8,37.4,58,30.22,10.0,South,3.5,-,N/A,,Clear,190,2012-10-12 02:35:00
10:55 PM,51.8,37.4,58,30.22,10.0,Calm,Calm,-,N/A,,Clear,0,2012-10-12 02:55:00
11:55 PM,48.2,39.2,71,30.22,10.0,Calm,Calm,-,N/A,,Mostly Cloudy,0,2012-10-12 03:55:00